Find Starlink 34830

NORAD ID: 65405 Int'l Des: 2025-192 Owner: SPXS Country: US Constellation: starlink operational
LEOCIRCULAR

Aktuelle Ansicht

3D-Globus wird geladen...

Über Starlink 34830

Beschreibung wird geladen...

Nächste Überflüge

Passes for default location (London). Set your location on the main map for personalized predictions.

Höhenverlauf

Loading altitude history...

Zweizeiliger Elementsatz

1 65405U 25192B 26146.51986662 .00019763 00000-0 64699-3 0 9994
2 65405 53.1569 230.6073 0001122 80.9632 279.1497 15.31696350 41313
Epoch: 26. Mai 2026 • Age: 9 hours

Aktueller Status

Höhe 489.6 km
Geschwindigkeit 7.62 km/s
Subsatellitenpunkt -52.17°S, 83.5°W
Startdatum 31. Aug. 2025
Alter 0.7 years
Typ internet

Technische Details

Klassifizierung Payload
Masse 575.00 kg
Trockenmasse 530.00 kg
Gesamtmasse 575.00 kg
Länge 0.30 m
Durchmesser 4.10 m
Spannweite 29.00 m
Form Box + pan
Hersteller SPXS
Bus-Typ Starlink V2MO
Phasenstatus In Orbit
Besitzer/Staat SPXS/US

Most Searched